カタログに戻る

CARTOSAT 3

運用中科学SSO
NORAD 44804·PAYLOAD·🇮🇳 India

打ち上げ Nov 27, 2019 から Satish Dhawan Space Centre

Loading…

次のパス (今後24時間)

TLE

最新Source: Space-Track

元期: Sep 14, 2026, 14:24 UTC

1 44804U 19081A   26257.60001615  .00002422  00000-0  11815-3 0  9999
2 44804  97.4212 317.9823 0010931 195.6164 164.4735 15.19210671377040

AllMySatでCARTOSAT 3をリアルタイム追跡

Download on the App Store